Weather in Karzhimant

Russia / Penza Oblast     52°46′48″N   45°31′56″E
temp.,
°C
wind,
m/s
gust,
m/s
humid.,
%
clouds,
%
prec.,
mm/h
press.,
hPa
HPBL,
m
23 october, sat
sat2300:00+10wsw614755 0.0 1009468
03:00+8wsw512740 0.0 1011332
06:00+7sw4108919 0.0 1011214
09:00+10wsw6127164 0.0 1012579
12:00+13wsw71542100 0.0 10131660
15:00+13sw61139100 0.0 10131381
18:00+9wsw2571100 0.4 1012215
21:00+9ssw41187100 0.6 1011548
24 october, sun
sun2400:00+7nnw257571 0.7 1012196
03:00+5w49825 0.7 1013268
06:00+4wsw49810 0.0 1014252
09:00+5w58725 0.0 1015512
12:00+7w68555 0.0 10161124
15:00+8w685071 0.0 10151468
18:00+7wsw4753100 0.0 1015942
21:00+5w487592 0.1 1016691
25 october, mon
mon2500:00+3w4890100 0.1 1016619
03:00+2wnw5996100 0.4 1016645
06:00+1nw7118563 0.5 1019740
09:00+1nnw81175100 0.5 1021883
12:00+1nnw71069100 0.0 10241142
15:00+2nnw795688 0.1 10251191
18:000nnw3965100 0.0 1028337
21:000nw37695 0.0 1029229
26 october, tue
tue2600:00−2nw227710 0.0 103038
03:00−2w347414 0.0 103095
06:00−3wsw38765 0.0 1030159
09:00+1wsw510595 0.0 1030418
12:00+5wsw79465 0.0 1028738
15:00+6wsw610467 0.0 1027809
18:00+3wsw5125585 0.0 1027407
21:00+2wsw5125999 0.0 1027347
27 october, wed
wed2700:00+1wsw5126177 0.0 1028299
03:00+1wsw5136294 0.0 1027281
06:000wsw4126316 0.0 1027265
09:00+3wsw6125223 0.0 1027381
12:00+7wsw710375 0.0 1026621
15:00+8wsw610360 0.0 1025735
18:00+5sw512433 0.0 1025349
21:00+4sw513453 0.0 1024329